Year,Month,Day,Hour,Minute,Value (Times are PST for windgust in km/hr)
2016,05,07,02,10,1.60
2016,05,07,02,18,1.60
2016,05,07,02,19,3.20
2016,05,07,02,24,4.80
2016,05,07,02,25,3.20
2016,05,07,02,48,1.60
2016,05,07,02,49,1.60
2016,05,07,02,50,1.60
2016,05,07,03,02,1.60
2016,05,07,03,29,4.80
2016,05,07,03,30,3.20
2016,05,07,03,31,3.20
2016,05,07,03,32,4.80
2016,05,07,03,33,1.60
2016,05,07,03,34,1.60
2016,05,07,03,41,4.80
2016,05,07,03,42,4.80
2016,05,07,03,43,3.20
2016,05,07,03,44,4.80
2016,05,07,03,56,1.60
2016,05,07,05,01,3.20
2016,05,07,05,02,4.80
2016,05,07,05,15,4.80
2016,05,07,05,16,4.80
2016,05,07,09,55,1.60
2016,05,07,10,00,1.60
2016,05,07,10,05,1.60
2016,05,07,10,28,1.60
2016,05,07,10,35,3.20
2016,05,07,11,01,1.60
2016,05,07,11,08,1.60
2016,05,07,11,14,1.60
2016,05,07,11,15,3.20
2016,05,07,11,24,4.80
2016,05,07,11,25,3.20
2016,05,07,11,28,4.80
2016,05,07,11,31,3.20
2016,05,07,11,32,8.10
2016,05,07,11,40,1.60
2016,05,07,11,44,1.60
2016,05,07,11,45,1.60
2016,05,07,11,47,1.60
2016,05,07,11,50,1.60
2016,05,07,11,54,1.60
2016,05,07,12,00,4.80
2016,05,07,12,02,3.20
2016,05,07,12,03,4.80
2016,05,07,12,04,1.60
2016,05,07,12,09,1.60
2016,05,07,12,12,1.60
2016,05,07,12,13,11.30
2016,05,07,12,14,11.30
2016,05,07,12,15,1.60
2016,05,07,12,16,4.80
2016,05,07,12,17,8.10
2016,05,07,12,28,1.60
2016,05,07,12,33,3.20
2016,05,07,12,34,1.60
2016,05,07,12,40,3.20
2016,05,07,12,50,6.40
2016,05,07,12,52,4.80
2016,05,07,12,59,8.10
2016,05,07,13,00,3.20
2016,05,07,13,01,8.10
2016,05,07,13,03,4.80
2016,05,07,13,04,6.40
2016,05,07,13,05,4.80
2016,05,07,13,08,1.60
2016,05,07,13,10,3.20
2016,05,07,13,11,1.60
2016,05,07,13,12,4.80
2016,05,07,13,13,1.60
2016,05,07,13,17,1.60
2016,05,07,13,20,1.60
2016,05,07,13,22,1.60
2016,05,07,13,23,8.10
2016,05,07,13,24,4.80
2016,05,07,13,25,3.20
2016,05,07,13,26,8.10
2016,05,07,13,27,1.60
2016,05,07,13,28,1.60
2016,05,07,13,31,4.80
2016,05,07,13,32,16.10
2016,05,07,13,33,11.30
2016,05,07,13,34,17.70
2016,05,07,13,35,17.70
2016,05,07,13,36,9.60
2016,05,07,13,37,12.90
2016,05,07,13,38,11.30
2016,05,07,13,39,8.10
2016,05,07,13,40,8.10
2016,05,07,13,41,16.10
2016,05,07,13,42,14.50
2016,05,07,13,44,6.40
2016,05,07,13,45,6.40
2016,05,07,13,46,9.60
2016,05,07,13,47,3.20
2016,05,07,13,48,3.20
2016,05,07,13,49,9.60
2016,05,07,13,50,12.90
2016,05,07,13,51,16.10
2016,05,07,13,52,16.10
2016,05,07,13,53,14.50
2016,05,07,13,54,12.90
2016,05,07,13,55,11.30
2016,05,07,13,56,11.30
2016,05,07,13,57,16.10
2016,05,07,13,58,16.10
2016,05,07,13,59,14.50
2016,05,07,14,00,14.50
2016,05,07,14,01,9.60
2016,05,07,14,02,17.70
2016,05,07,14,03,20.90
2016,05,07,14,04,24.20
2016,05,07,14,05,22.50
2016,05,07,14,06,14.50
2016,05,07,14,07,14.50
2016,05,07,14,08,17.70
2016,05,07,14,09,22.50
2016,05,07,14,10,24.20
2016,05,07,14,11,27.40
2016,05,07,14,12,33.80
2016,05,07,14,13,17.70
2016,05,07,14,14,29.00
2016,05,07,14,15,24.20
2016,05,07,14,16,24.20
2016,05,07,14,17,17.70
2016,05,07,14,18,20.90
2016,05,07,14,19,17.70
2016,05,07,14,20,22.50
2016,05,07,14,21,20.90
2016,05,07,14,22,16.10
2016,05,07,14,23,24.20
2016,05,07,14,24,14.50
2016,05,07,14,25,19.30
2016,05,07,14,26,20.90
2016,05,07,14,27,20.90
2016,05,07,14,28,25.70
2016,05,07,14,29,19.30
2016,05,07,14,30,16.10
2016,05,07,14,31,20.90
2016,05,07,14,32,22.50
2016,05,07,14,33,22.50
2016,05,07,14,34,25.70
2016,05,07,14,35,29.00
2016,05,07,14,36,25.70
2016,05,07,14,37,24.20
2016,05,07,14,38,25.70
2016,05,07,14,39,19.30
2016,05,07,14,40,27.40
2016,05,07,14,41,30.60
2016,05,07,14,42,32.20
2016,05,07,14,43,19.30
2016,05,07,14,44,17.70
2016,05,07,14,45,29.00
2016,05,07,14,46,32.20
2016,05,07,14,47,32.20
2016,05,07,14,48,19.30
2016,05,07,14,49,22.50
2016,05,07,14,50,24.20
2016,05,07,14,51,25.70
2016,05,07,14,52,35.40
2016,05,07,14,53,35.40
2016,05,07,14,54,16.10
2016,05,07,14,55,17.70
2016,05,07,14,56,16.10
2016,05,07,14,57,14.50
2016,05,07,14,58,30.60
2016,05,07,14,59,19.30
2016,05,07,15,00,20.90
2016,05,07,15,01,20.90
2016,05,07,15,02,24.20
2016,05,07,15,03,20.90
2016,05,07,15,04,19.30
2016,05,07,15,05,24.20
2016,05,07,15,06,27.40
2016,05,07,15,07,27.40
2016,05,07,15,08,29.00
2016,05,07,15,09,16.10
2016,05,07,15,10,19.30
2016,05,07,15,11,20.90
2016,05,07,15,12,20.90
2016,05,07,15,13,19.30
2016,05,07,15,14,20.90
2016,05,07,15,15,19.30
2016,05,07,15,16,19.30
2016,05,07,15,17,20.90
2016,05,07,15,18,25.70
2016,05,07,15,19,25.70
2016,05,07,15,20,30.60
2016,05,07,15,21,32.20
2016,05,07,15,22,25.70
2016,05,07,15,23,20.90
2016,05,07,15,24,16.10
2016,05,07,15,25,20.90
2016,05,07,15,26,24.20
2016,05,07,15,27,16.10
2016,05,07,15,28,20.90
2016,05,07,15,29,17.70
2016,05,07,15,30,16.10
2016,05,07,15,31,17.70
2016,05,07,15,32,22.50
2016,05,07,15,33,24.20
2016,05,07,15,34,24.20
2016,05,07,15,35,20.90
2016,05,07,15,36,20.90
2016,05,07,15,37,29.00
2016,05,07,15,38,20.90
2016,05,07,15,39,22.50
2016,05,07,15,40,22.50
2016,05,07,15,41,14.50
2016,05,07,15,42,16.10
2016,05,07,15,43,12.90
2016,05,07,15,44,24.20
2016,05,07,15,45,16.10
2016,05,07,15,46,20.90
2016,05,07,15,47,27.40
2016,05,07,15,48,25.70
2016,05,07,15,49,24.20
2016,05,07,15,50,22.50
2016,05,07,15,51,22.50
2016,05,07,15,52,20.90
2016,05,07,15,53,24.20
2016,05,07,15,54,27.40
2016,05,07,15,55,30.60
2016,05,07,15,56,19.30
2016,05,07,15,57,22.50
2016,05,07,15,58,29.00
2016,05,07,15,59,24.20
2016,05,07,16,00,33.80
2016,05,07,16,01,22.50
2016,05,07,16,02,24.20
2016,05,07,16,03,29.00
2016,05,07,16,04,27.40
2016,05,07,16,05,29.00
2016,05,07,16,06,27.40
2016,05,07,16,07,29.00
2016,05,07,16,08,29.00
2016,05,07,16,09,22.50
2016,05,07,16,10,32.20
2016,05,07,16,11,33.80
2016,05,07,16,12,37.00
2016,05,07,16,13,27.40
2016,05,07,16,14,27.40
2016,05,07,16,15,24.20
2016,05,07,16,16,37.00
2016,05,07,16,17,25.70
2016,05,07,16,18,30.60
2016,05,07,16,19,30.60
2016,05,07,16,20,27.40
2016,05,07,16,21,38.60
2016,05,07,16,22,32.20
2016,05,07,16,23,30.60
2016,05,07,16,24,27.40
2016,05,07,16,25,30.60
2016,05,07,16,26,32.20
2016,05,07,16,27,33.80
2016,05,07,16,28,29.00
2016,05,07,16,29,32.20
2016,05,07,16,30,33.80
2016,05,07,16,31,29.00
2016,05,07,16,32,27.40
2016,05,07,16,33,29.00
2016,05,07,16,34,25.70
2016,05,07,16,35,33.80
2016,05,07,16,36,22.50
2016,05,07,16,37,29.00
2016,05,07,16,38,25.70
2016,05,07,16,39,25.70
2016,05,07,16,40,20.90
2016,05,07,16,41,27.40
2016,05,07,16,42,38.60
2016,05,07,16,43,25.70
2016,05,07,16,44,24.20
2016,05,07,16,45,29.00
2016,05,07,16,46,32.20
2016,05,07,16,47,30.60
2016,05,07,16,48,19.30
2016,05,07,16,49,25.70
2016,05,07,16,50,29.00
2016,05,07,16,51,27.40
2016,05,07,16,52,32.20
2016,05,07,16,53,24.20
2016,05,07,16,54,29.00
2016,05,07,16,55,27.40
2016,05,07,16,56,24.20
2016,05,07,16,57,32.20
2016,05,07,16,58,27.40
2016,05,07,16,59,25.70
2016,05,07,17,00,32.20
2016,05,07,17,01,30.60
2016,05,07,17,02,19.30
2016,05,07,17,03,29.00
2016,05,07,17,04,29.00
2016,05,07,17,05,33.80
2016,05,07,17,06,32.20
2016,05,07,17,07,38.60
2016,05,07,17,08,32.20
2016,05,07,17,09,35.40
2016,05,07,17,10,37.00
2016,05,07,17,11,25.70
2016,05,07,17,12,25.70
2016,05,07,17,13,29.00
2016,05,07,17,14,35.40
2016,05,07,17,15,37.00
2016,05,07,17,16,19.30
2016,05,07,17,17,33.80
2016,05,07,17,18,20.90
2016,05,07,17,19,20.90
2016,05,07,17,20,22.50
2016,05,07,17,21,27.40
2016,05,07,17,22,22.50
2016,05,07,17,23,25.70
2016,05,07,17,24,25.70
2016,05,07,17,25,22.50
2016,05,07,17,26,24.20
2016,05,07,17,27,30.60
2016,05,07,17,28,27.40
2016,05,07,17,29,35.40
2016,05,07,17,30,25.70
2016,05,07,17,31,29.00
2016,05,07,17,32,30.60
2016,05,07,17,33,29.00
2016,05,07,17,34,33.80
2016,05,07,17,35,30.60
2016,05,07,17,36,30.60
2016,05,07,17,37,27.40
2016,05,07,17,38,22.50
2016,05,07,17,39,30.60
2016,05,07,17,40,25.70
2016,05,07,17,41,35.40
2016,05,07,17,42,29.00
2016,05,07,17,43,25.70
2016,05,07,17,44,37.00
2016,05,07,17,45,35.40
2016,05,07,17,46,33.80
2016,05,07,17,47,37.00
2016,05,07,17,48,25.70
2016,05,07,17,49,29.00
2016,05,07,17,50,20.90
2016,05,07,17,51,33.80
2016,05,07,17,52,27.40
2016,05,07,17,53,25.70
2016,05,07,17,54,30.60
2016,05,07,17,55,38.60
2016,05,07,17,56,22.50
2016,05,07,17,57,43.50
2016,05,07,17,58,33.80
2016,05,07,17,59,30.60
2016,05,07,18,00,35.40
2016,05,07,18,01,29.00
2016,05,07,18,02,35.40
2016,05,07,18,03,27.40
2016,05,07,18,04,33.80
2016,05,07,18,05,41.80
2016,05,07,18,06,30.60
2016,05,07,18,07,32.20
2016,05,07,18,08,24.20
2016,05,07,18,09,40.20
2016,05,07,18,10,32.20
2016,05,07,18,11,33.80
2016,05,07,18,12,25.70
2016,05,07,18,13,32.20
2016,05,07,18,14,27.40
2016,05,07,18,15,32.20
2016,05,07,18,16,38.60
2016,05,07,18,17,41.80
2016,05,07,18,18,30.60
2016,05,07,18,19,29.00
2016,05,07,18,20,24.20
2016,05,07,18,21,30.60
2016,05,07,18,22,27.40
2016,05,07,18,23,32.20
2016,05,07,18,24,32.20
2016,05,07,18,25,29.00
2016,05,07,18,26,24.20
2016,05,07,18,27,27.40
2016,05,07,18,28,32.20
2016,05,07,18,29,33.80
2016,05,07,18,30,33.80
2016,05,07,18,31,29.00
2016,05,07,18,32,27.40
2016,05,07,18,33,35.40
2016,05,07,18,34,27.40
2016,05,07,18,35,33.80
2016,05,07,18,36,29.00
2016,05,07,18,37,30.60
2016,05,07,18,38,30.60
2016,05,07,18,39,25.70
2016,05,07,18,40,27.40
2016,05,07,18,41,25.70
2016,05,07,18,42,27.40
2016,05,07,18,43,38.60
2016,05,07,18,44,33.80
2016,05,07,18,45,19.30
2016,05,07,18,46,19.30
2016,05,07,18,47,29.00
2016,05,07,18,48,41.80
2016,05,07,18,49,25.70
2016,05,07,18,50,29.00
2016,05,07,18,51,29.00
2016,05,07,18,52,32.20
2016,05,07,18,53,24.20
2016,05,07,18,54,29.00
2016,05,07,18,55,29.00
2016,05,07,18,56,37.00
2016,05,07,18,57,27.40
2016,05,07,18,58,20.90
2016,05,07,18,59,30.60
2016,05,07,19,00,32.20
2016,05,07,19,01,27.40
2016,05,07,19,02,25.70
2016,05,07,19,03,27.40
2016,05,07,19,04,30.60
2016,05,07,19,05,25.70
2016,05,07,19,06,33.80
2016,05,07,19,07,24.20
2016,05,07,19,08,30.60
2016,05,07,19,09,30.60
2016,05,07,19,10,29.00
2016,05,07,19,11,29.00
2016,05,07,19,12,30.60
2016,05,07,19,13,25.70
2016,05,07,19,14,22.50
2016,05,07,19,15,20.90
2016,05,07,19,16,33.80
2016,05,07,19,17,33.80
2016,05,07,19,18,25.70
2016,05,07,19,19,32.20
2016,05,07,19,20,29.00
2016,05,07,19,21,38.60
2016,05,07,19,22,33.80
2016,05,07,19,23,30.60
2016,05,07,19,24,37.00
2016,05,07,19,25,37.00
2016,05,07,19,26,32.20
2016,05,07,19,27,25.70
2016,05,07,19,28,30.60
2016,05,07,19,29,35.40
2016,05,07,19,30,27.40
2016,05,07,19,31,32.20
2016,05,07,19,32,37.00
2016,05,07,19,33,32.20
2016,05,07,19,34,35.40
2016,05,07,19,35,22.50
2016,05,07,19,36,35.40
2016,05,07,19,37,33.80
2016,05,07,19,38,41.80
2016,05,07,19,39,35.40
2016,05,07,19,40,38.60
2016,05,07,19,41,30.60
2016,05,07,19,42,25.70
2016,05,07,19,43,35.40
2016,05,07,19,44,30.60
2016,05,07,19,45,32.20
2016,05,07,19,46,38.60
2016,05,07,19,47,33.80
2016,05,07,19,48,29.00
2016,05,07,19,49,30.60
2016,05,07,19,50,27.40
2016,05,07,19,51,29.00
2016,05,07,19,52,24.20
2016,05,07,19,53,30.60
2016,05,07,19,54,22.50
2016,05,07,19,55,29.00
2016,05,07,19,56,30.60
2016,05,07,19,57,24.20
2016,05,07,19,58,29.00
2016,05,07,19,59,20.90
2016,05,07,20,00,30.60
2016,05,07,20,01,24.20
2016,05,07,20,02,29.00
2016,05,07,20,03,24.20
2016,05,07,20,04,40.20
2016,05,07,20,05,30.60
2016,05,07,20,06,24.20
2016,05,07,20,07,22.50
2016,05,07,20,08,29.00
2016,05,07,20,09,35.40
2016,05,07,20,10,24.20
2016,05,07,20,11,46.70
2016,05,07,20,12,25.70
2016,05,07,20,13,30.60
2016,05,07,20,14,29.00
2016,05,07,20,15,35.40
2016,05,07,20,16,30.60
2016,05,07,20,17,29.00
2016,05,07,20,18,17.70
2016,05,07,20,19,25.70
2016,05,07,20,20,32.20
2016,05,07,20,21,29.00
2016,05,07,20,22,33.80
2016,05,07,20,23,30.60
2016,05,07,20,24,35.40
2016,05,07,20,25,29.00
2016,05,07,20,26,38.60
2016,05,07,20,27,35.40
2016,05,07,20,28,25.70
2016,05,07,20,29,27.40
2016,05,07,20,30,35.40
2016,05,07,20,31,40.20
2016,05,07,20,32,37.00
2016,05,07,20,33,29.00
2016,05,07,20,34,22.50
2016,05,07,20,35,24.20
2016,05,07,20,36,35.40
2016,05,07,20,37,24.20
2016,05,07,20,38,48.30
2016,05,07,20,39,32.20
2016,05,07,20,40,33.80
2016,05,07,20,41,32.20
2016,05,07,20,42,35.40
2016,05,07,20,43,27.40
2016,05,07,20,44,30.60
2016,05,07,20,45,32.20
2016,05,07,20,46,32.20
2016,05,07,20,47,35.40
2016,05,07,20,48,29.00
2016,05,07,20,49,24.20
2016,05,07,20,50,25.70
2016,05,07,20,51,33.80
2016,05,07,20,52,24.20
2016,05,07,20,53,29.00
2016,05,07,20,54,20.90
2016,05,07,20,55,45.10
2016,05,07,20,56,40.20
2016,05,07,20,57,49.90
2016,05,07,20,58,37.00
2016,05,07,20,59,30.60
2016,05,07,21,00,25.70
2016,05,07,21,01,33.80
2016,05,07,21,02,25.70
2016,05,07,21,03,32.20
2016,05,07,21,04,32.20
2016,05,07,21,05,27.40
2016,05,07,21,06,29.00
2016,05,07,21,07,45.10
2016,05,07,21,08,30.60
2016,05,07,21,09,29.00
2016,05,07,21,10,38.60
2016,05,07,21,11,27.40
2016,05,07,21,12,25.70
2016,05,07,21,13,30.60
2016,05,07,21,14,30.60
2016,05,07,21,15,32.20
2016,05,07,21,16,29.00
2016,05,07,21,17,32.20
2016,05,07,21,18,35.40
2016,05,07,21,19,22.50
2016,05,07,21,20,30.60
2016,05,07,21,21,32.20
2016,05,07,21,22,30.60
2016,05,07,21,23,33.80
2016,05,07,21,24,27.40
2016,05,07,21,25,38.60
2016,05,07,21,26,32.20
2016,05,07,21,27,30.60
2016,05,07,21,28,32.20
2016,05,07,21,29,30.60
2016,05,07,21,30,46.70
2016,05,07,21,31,43.50
2016,05,07,21,32,29.00
2016,05,07,21,33,32.20
2016,05,07,21,34,27.40
2016,05,07,21,35,40.20
2016,05,07,21,36,40.20
2016,05,07,21,37,35.40
2016,05,07,21,38,30.60
2016,05,07,21,39,30.60
2016,05,07,21,40,29.00
2016,05,07,21,41,48.30
2016,05,07,21,42,37.00
2016,05,07,21,43,41.80
2016,05,07,21,44,35.40
2016,05,07,21,45,41.80
2016,05,07,21,46,37.00
2016,05,07,21,47,22.50
2016,05,07,21,48,25.70
2016,05,07,21,49,41.80
2016,05,07,21,50,38.60
2016,05,07,21,51,40.20
2016,05,07,21,52,27.40
2016,05,07,21,53,33.80
2016,05,07,21,54,32.20
2016,05,07,21,55,38.60
2016,05,07,21,56,37.00
2016,05,07,21,57,38.60
2016,05,07,21,58,33.80
2016,05,07,21,59,54.70
2016,05,07,22,00,37.00
2016,05,07,22,01,35.40
2016,05,07,22,02,37.00
2016,05,07,22,03,35.40
2016,05,07,22,04,45.10
2016,05,07,22,05,45.10
2016,05,07,22,06,38.60
2016,05,07,22,07,30.60
2016,05,07,22,08,32.20
2016,05,07,22,09,27.40
2016,05,07,22,10,37.00
2016,05,07,22,11,40.20
2016,05,07,22,12,32.20
2016,05,07,22,13,27.40
2016,05,07,22,14,38.60
2016,05,07,22,15,27.40
2016,05,07,22,16,33.80
2016,05,07,22,17,30.60
2016,05,07,22,18,33.80
2016,05,07,22,19,29.00
2016,05,07,22,20,24.20
2016,05,07,22,21,35.40
2016,05,07,22,22,41.80
2016,05,07,22,23,27.40
2016,05,07,22,24,41.80
2016,05,07,22,25,35.40
2016,05,07,22,26,35.40
2016,05,07,22,27,33.80
2016,05,07,22,28,30.60
2016,05,07,22,29,41.80
2016,05,07,22,30,43.50
2016,05,07,22,31,29.00
2016,05,07,22,32,29.00
2016,05,07,22,33,29.00
2016,05,07,22,34,32.20
2016,05,07,22,35,33.80
2016,05,07,22,36,37.00
2016,05,07,22,37,24.20
2016,05,07,22,38,32.20
2016,05,07,22,39,24.20
2016,05,07,22,40,32.20
2016,05,07,22,41,29.00
2016,05,07,22,42,33.80
2016,05,07,22,43,24.20
2016,05,07,22,44,20.90
2016,05,07,22,45,33.80
2016,05,07,22,46,30.60
2016,05,07,22,47,40.20
2016,05,07,22,48,24.20
2016,05,07,22,49,37.00
2016,05,07,22,50,27.40
2016,05,07,22,51,30.60
2016,05,07,22,52,32.20
2016,05,07,22,53,25.70
2016,05,07,22,54,29.00
2016,05,07,22,55,25.70
2016,05,07,22,56,33.80
2016,05,07,22,57,32.20
2016,05,07,22,58,25.70
2016,05,07,22,59,22.50
2016,05,07,23,00,19.30
2016,05,07,23,01,33.80
2016,05,07,23,02,25.70
2016,05,07,23,03,30.60
2016,05,07,23,04,27.40
2016,05,07,23,05,33.80
2016,05,07,23,06,35.40
2016,05,07,23,07,25.70
2016,05,07,23,08,24.20
2016,05,07,23,09,22.50
2016,05,07,23,10,24.20
2016,05,07,23,11,27.40
2016,05,07,23,12,25.70
2016,05,07,23,13,22.50
2016,05,07,23,14,22.50
2016,05,07,23,15,29.00
2016,05,07,23,16,38.60
2016,05,07,23,17,25.70
2016,05,07,23,18,29.00
2016,05,07,23,19,16.10
2016,05,07,23,20,22.50
2016,05,07,23,21,29.00
2016,05,07,23,22,24.20
2016,05,07,23,23,19.30
2016,05,07,23,24,17.70
2016,05,07,23,25,24.20
2016,05,07,23,26,22.50
2016,05,07,23,27,14.50
2016,05,07,23,28,20.90
2016,05,07,23,29,19.30
2016,05,07,23,30,33.80
2016,05,07,23,31,24.20
2016,05,07,23,32,27.40
2016,05,07,23,33,27.40
2016,05,07,23,34,27.40
2016,05,07,23,35,29.00
2016,05,07,23,36,27.40
2016,05,07,23,37,32.20
2016,05,07,23,38,27.40
2016,05,07,23,39,29.00
2016,05,07,23,40,24.20
2016,05,07,23,41,37.00
2016,05,07,23,42,33.80
2016,05,07,23,43,33.80
2016,05,07,23,44,20.90
2016,05,07,23,45,27.40
2016,05,07,23,46,22.50
2016,05,07,23,47,20.90
2016,05,07,23,48,22.50
2016,05,07,23,49,22.50
2016,05,07,23,50,17.70
2016,05,07,23,51,38.60
2016,05,07,23,52,43.50
2016,05,07,23,53,30.60
2016,05,07,23,54,35.40
2016,05,07,23,55,17.70
2016,05,07,23,56,27.40
2016,05,07,23,57,24.20
2016,05,07,23,58,35.40
2016,05,07,23,59,29.00
